EN

Hourly Weather Koudougou

Today, 1 October, Thursday

Time Temperature Precipitation Wind Pressure Humidity
00:00 +27°C° 0 mm 4 mps 731 mmHg 80%
01:00 +27°C° 0 mm 3 mps 731 mmHg 81%
02:00 +27°C° 0 mm 3 mps 731 mmHg 82%
03:00 +27°C° 0 mm 2 mps 730 mmHg 84%
04:00 +27°C° 0 mm 2 mps 730 mmHg 85%
05:00 +26°C° 0 mm 2 mps 731 mmHg 85%
06:00 +26°C° 0 mm 2 mps 731 mmHg 86%
07:00 +27°C° 0 mm 2 mps 731 mmHg 80%
08:00 +29°C° 0 mm 3 mps 731 mmHg 73%
09:00 +30°C° 0 mm 3 mps 732 mmHg 67%
10:00 +31°C° 0 mm 2 mps 731 mmHg 62%
11:00 +32°C° 0 mm 2 mps 731 mmHg 57%
12:00 +33°C° 0 mm 1 mps 731 mmHg 52%
13:00 +34°C° 0 mm 1 mps 730 mmHg 49%
14:00 +36°C° 0 mm 2 mps 729 mmHg 47%
15:00 +36°C° 0 mm 2 mps 729 mmHg 44%
16:00 +35°C° 0 mm 2 mps 729 mmHg 49%
17:00 +34°C° 0 mm 3 mps 729 mmHg 54%
18:00 +33°C° 0 mm 4 mps 729 mmHg 59%
19:00 +30°C° 0.2 mm 4 mps 730 mmHg 65%
20:00 +29°C° 0.2 mm 4 mps 730 mmHg 71%
21:00 +28°C° 0.2 mm 4 mps 731 mmHg 77%
22:00 +28°C° 0 mm 4 mps 731 mmHg 78%
23:00 +27°C° 0 mm 4 mps 731 mmHg 79%

Tomorrow, 2 October, Friday

Time Temperature Precipitation Wind Pressure Humidity
00:00 +27°C° 0 mm 4 mps 730 mmHg 80%
01:00 +27°C° 0 mm 4 mps 730 mmHg 80%
02:00 +26°C° 0 mm 4 mps 730 mmHg 81%
03:00 +26°C° 0 mm 4 mps 730 mmHg 81%
04:00 +26°C° 0 mm 3 mps 730 mmHg 82%
05:00 +26°C° 0 mm 3 mps 730 mmHg 83%
06:00 +25°C° 0 mm 3 mps 730 mmHg 85%
07:00 +27°C° 0 mm 4 mps 731 mmHg 80%
08:00 +28°C° 0 mm 4 mps 731 mmHg 74%
09:00 +29°C° 0 mm 5 mps 732 mmHg 69%
10:00 +32°C° 0 mm 5 mps 732 mmHg 63%
11:00 +33°C° 0 mm 5 mps 731 mmHg 57%
12:00 +35°C° 0 mm 5 mps 731 mmHg 51%
13:00 +35°C° 0 mm 4 mps 730 mmHg 50%
14:00 +35°C° 0 mm 4 mps 730 mmHg 48%
15:00 +36°C° 0 mm 4 mps 730 mmHg 46%
16:00 +35°C° 0 mm 4 mps 729 mmHg 52%
17:00 +33°C° 0 mm 4 mps 729 mmHg 57%
18:00 +32°C° 0 mm 4 mps 729 mmHg 62%
19:00 +30°C° 0 mm 4 mps 730 mmHg 66%
20:00 +30°C° 0 mm 4 mps 730 mmHg 69%
21:00 +29°C° 0 mm 4 mps 731 mmHg 73%
22:00 +28°C° 0 mm 4 mps 731 mmHg 74%
23:00 +28°C° 0 mm 3 mps 731 mmHg 75%

Day after tomorrow, 3 October, Saturday

Time Temperature Precipitation Wind Pressure Humidity
00:00 +28°C° 0 mm 3 mps 731 mmHg 76%
01:00 +27°C° 0 mm 3 mps 731 mmHg 78%
02:00 +27°C° 0 mm 3 mps 731 mmHg 79%
03:00 +27°C° 0 mm 3 mps 731 mmHg 80%
04:00 +26°C° 0 mm 2 mps 731 mmHg 82%
05:00 +26°C° 0 mm 2 mps 731 mmHg 84%
06:00 +26°C° 0 mm 2 mps 732 mmHg 86%
07:00 +27°C° 0 mm 2 mps 732 mmHg 80%
08:00 +29°C° 0 mm 3 mps 733 mmHg 74%
09:00 +30°C° 0 mm 3 mps 733 mmHg 68%
10:00 +31°C° 0.1 mm 3 mps 733 mmHg 62%
11:00 +32°C° 0.1 mm 2 mps 732 mmHg 56%
12:00 +34°C° 0.1 mm 2 mps 732 mmHg 51%
13:00 +35°C° 0 mm 2 mps 731 mmHg 49%
14:00 +35°C° 0 mm 2 mps 731 mmHg 47%
15:00 +35°C° 0 mm 2 mps 730 mmHg 45%
16:00 +34°C° 0.1 mm 2 mps 730 mmHg 49%
17:00 +32°C° 0.1 mm 2 mps 730 mmHg 53%
18:00 +31°C° 0.1 mm 1 mps 730 mmHg 57%
19:00 +31°C° 0.1 mm 1 mps 731 mmHg 60%
20:00 +30°C° 0.1 mm 1 mps 731 mmHg 62%
21:00 +29°C° 0.1 mm 1 mps 732 mmHg 65%
22:00 +29°C° 0 mm 1 mps 732 mmHg 68%
23:00 +28°C° 0 mm 2 mps 732 mmHg 71%

4 October, Sunday

Time Temperature Precipitation Wind Pressure Humidity
00:00 +28°C° 0 mm 2 mps 732 mmHg 73%
01:00 +27°C° 0.1 mm 2 mps 732 mmHg 75%
02:00 +27°C° 0.1 mm 2 mps 732 mmHg 78%
03:00 +26°C° 0.1 mm 2 mps 731 mmHg 80%
04:00 +26°C° 0.1 mm 2 mps 732 mmHg 81%
05:00 +26°C° 0.1 mm 2 mps 732 mmHg 82%
06:00 +26°C° 0.1 mm 2 mps 732 mmHg 83%
07:00 +27°C° 0.1 mm 2 mps 733 mmHg 75%
08:00 +29°C° 0.1 mm 2 mps 734 mmHg 68%
09:00 +31°C° 0.1 mm 3 mps 734 mmHg 61%
10:00 +33°C° 0.1 mm 3 mps 734 mmHg 54%
11:00 +35°C° 0.1 mm 4 mps 733 mmHg 48%
12:00 +36°C° 0.1 mm 4 mps 733 mmHg 41%
13:00 +36°C° 0 mm 4 mps 732 mmHg 41%
14:00 +36°C° 0 mm 5 mps 732 mmHg 41%
15:00 +36°C° 0 mm 5 mps 731 mmHg 41%
16:00 +35°C° 0 mm 5 mps 731 mmHg 45%
17:00 +34°C° 0 mm 4 mps 731 mmHg 49%
18:00 +33°C° 0 mm 3 mps 731 mmHg 53%
19:00 +31°C° 0 mm 3 mps 732 mmHg 55%
20:00 +30°C° 0 mm 3 mps 732 mmHg 58%
21:00 +29°C° 0 mm 3 mps 732 mmHg 61%
22:00 +29°C° 0 mm 2 mps 732 mmHg 62%
23:00 +29°C° 0 mm 2 mps 733 mmHg 63%

5 October, Monday

Time Temperature Precipitation Wind Pressure Humidity
00:00 +28°C° 0 mm 2 mps 733 mmHg 64%
01:00 +28°C° 0 mm 2 mps 733 mmHg 66%
02:00 +28°C° 0 mm 2 mps 733 mmHg 67%
03:00 +28°C° 0 mm 2 mps 732 mmHg 69%
04:00 +27°C° 0 mm 2 mps 733 mmHg 71%
05:00 +27°C° 0 mm 2 mps 733 mmHg 73%
06:00 +26°C° 0 mm 2 mps 733 mmHg 75%
07:00 +28°C° 0 mm 2 mps 733 mmHg 69%
08:00 +30°C° 0 mm 2 mps 734 mmHg 62%
09:00 +31°C° 0 mm 2 mps 734 mmHg 56%
10:00 +34°C° 0 mm 2 mps 734 mmHg 51%
11:00 +35°C° 0 mm 2 mps 734 mmHg 45%
12:00 +36°C° 0 mm 1 mps 733 mmHg 40%
13:00 +37°C° 0 mm 2 mps 733 mmHg 38%
14:00 +38°C° 0 mm 2 mps 732 mmHg 37%
15:00 +38°C° 0 mm 3 mps 731 mmHg 35%
16:00 +37°C° 0 mm 2 mps 731 mmHg 38%
17:00 +36°C° 0 mm 2 mps 731 mmHg 41%
18:00 +35°C° 0 mm 2 mps 731 mmHg 43%
19:00 +34°C° 0.1 mm 2 mps 732 mmHg 48%
20:00 +32°C° 0.1 mm 2 mps 732 mmHg 53%
21:00 +31°C° 0.1 mm 2 mps 733 mmHg 58%
22:00 +30°C° 0.3 mm 2 mps 733 mmHg 62%
23:00 +29°C° 0.3 mm 3 mps 733 mmHg 65%

6 October, Tuesday

Time Temperature Precipitation Wind Pressure Humidity
00:00 +29°C° 0.3 mm 3 mps 733 mmHg 69%
01:00 +28°C° 0 mm 3 mps 732 mmHg 72%
02:00 +28°C° 0 mm 3 mps 732 mmHg 75%
03:00 +27°C° 0 mm 3 mps 731 mmHg 78%
04:00 +27°C° 0 mm 3 mps 732 mmHg 79%
05:00 +27°C° 0 mm 3 mps 732 mmHg 81%
06:00 +26°C° 0 mm 2 mps 732 mmHg 82%
07:00 +28°C° 0 mm 3 mps 732 mmHg 75%
08:00 +30°C° 0 mm 3 mps 733 mmHg 67%
09:00 +33°C° 0 mm 3 mps 733 mmHg 60%
10:00 +34°C° 0 mm 3 mps 733 mmHg 54%
11:00 +36°C° 0 mm 3 mps 732 mmHg 48%
12:00 +37°C° 0 mm 4 mps 732 mmHg 42%
13:00 +38°C° 0 mm 3 mps 731 mmHg 39%
14:00 +39°C° 0 mm 2 mps 730 mmHg 36%
15:00 +39°C° 0 mm 2 mps 729 mmHg 33%
16:00 +38°C° 0 mm 2 mps 729 mmHg 35%
17:00 +37°C° 0 mm 2 mps 729 mmHg 37%
18:00 +36°C° 0 mm 2 mps 729 mmHg 38%
19:00 +35°C° 0 mm 3 mps 730 mmHg 44%
20:00 +34°C° 0 mm 3 mps 730 mmHg 50%
21:00 +32°C° 0 mm 4 mps 730 mmHg 56%
22:00 +32°C° 0 mm 4 mps 730 mmHg 59%
23:00 +30°C° 0 mm 4 mps 731 mmHg 63%
Show more